Шожма

Россия / Архангельская область     61°51′40″N   40°13′24″E
темп.,
°C
ветер,
м/с
пор.,
м/с
влажн.,
%
обл.,
%
осадки,
мм/ч
давл.,
гПа
погр.,
м
26 октября, вт
вт2600:000вюв1498100 2.8 1008153
03:00+1зсз1599100 4.1 1008209
06:00+2зюз17100100 1.1 1008260
09:00+4зюз3998100 1.3 1008662
12:00+3зюз41099100 0.3 1008607
15:00+3юз4998100 0.6 1008546
18:00+2юз41098100 0.0 1008553
21:00+2юз41098100 0.1 1007585
27 октября, ср
ср2700:00+2юз41298100 0.1 1006518
03:00+3юз41198100 0.3 1004514
06:00+3юз41098100 0.1 1003410
09:00+2ююз41098100 0.5 1001403
12:00+1ююз3999100 3.0 1000330
15:00+1юз2899100 5.5 999340
18:000зюз3799100 1.4 998244
21:00+1з3999100 2.6 999546
28 октября, чт
чт2800:00+3сз4898100 0.3 1000754
03:000ссз4892100 0.3 1002846
06:00−2с4892100 0.1 1006647
09:00−4с5982100 0.2 1010768
12:00−3ссв498256 0.1 1014771
15:00−3с410765 0.1 1017849
18:00−5ссз29915 0.0 1022323
21:00−6ссз14975 0.0 102488
29 октября, пт
пт2900:00−7ссз009835 0.0 102611
03:00−7юз1397100 0.0 102854
06:00−5ююз3987100 0.0 1027303
09:00−4ююз51476100 0.0 1025620
12:00−2ююз61765100 0.0 1022796
15:00−3ююз71994100 1.8 1018760
18:00−1юз61695100 2.4 1015704
21:00+2юз51698100 4.4 1014653
30 октября, сб
сб3000:00+5зюз51498100 0.3 1014650
03:00+6зюз51398100 0.3 1014707
06:00+5зюз51398100 0.0 1014743
09:00+5зюз41396100 0.1 1014793
12:00+6зюз51397100 0.1 1014911
15:00+6зюз41395100 0.2 1013706
18:00+6юз41396100 0.0 1013612
21:00+6юз51296100 0.0 1013618